Weather History for Joplin, MO

Change the Weather History Date:

Saturday, May 4, 2013

  Actual Average Record
Temperature  
Mean Temperature 40 °F 64 °F  
Max Temperature 46 °F 75 °F 94 °F (2014)
Min Temperature 33 °F 53 °F 33 °F (1954)
Degree Days  
Heating Degree Days 25 4  
Month to date heating degree days 71 16  
Since 1 July heating degree days 4175 4019  
Cooling Degree Days 0 2  
Month to date cooling degree days 5 8  
Year to date cooling degree days 35 62  
Moisture  
Dew Point 35 °F    
Average Humidity 86    
Maximum Humidity 100    
Minimum Humidity 71    
Precipitation  
Precipitation 0.22 in 0.19 in 5.21 in (1999)
Month to date precipitation 1.33 0.77  
Year to date precipitation 15.83 13.01  
Sea Level Pressure  
Sea Level Pressure 29.93 in    
Wind  
Wind Speed 6 mph (NNW)    
Max Wind Speed 13 mph    
Max Gust Speed 16 mph    
Visibility 8 miles    
Events Rain , Snow    
T = Trace of Precipitation, MM = Missing Value Source: NWS Daily Summary

Daily Weather History Graph

Daily Weather History Graph

Search for Another Location

Airport:

Trip Planner

Search our weather history database for the weather conditions in past years. The results will help you decide how hot, cold, wet, or windy it might be!

Date:

Astronomy

May. 04, 2013 Rise Set
Actual Time 6:19 AM CDT 8:10 PM CDT
Civil Twilight 5:51 AM CDT 8:38 PM CDT
Nautical Twilight 5:17 AM CDT 9:12 PM CDT
Astronomical Twilight 4:40 AM CDT 9:49 PM CDT
Moon 3:11 AM CDT (5/4) 3:15 PM CDT (5/4)
Length of Visible Light 14h 46m
Length of Day
13h 50m
Waning Crescent, 27% of the Moon is Illuminated
May 4
Waning Crescent
May 9
New
May 17
First Quarter
May 24
Full
May 31
Last Quarter

Hourly Weather History & Observations

Time (CDT) Temp. Windchill Dew Point Humidity Pressure Visibility Wind Dir Wind Speed Gust Speed Precip Events Conditions
12:30 AM 33.8 °F 26.4 °F 33.8 °F 100% 29.93 in 7.0 mi WNW 9.2 mph - 0.06 in Rain Light Freezing Rain
12:41 AM 33.8 °F 26.4 °F 33.8 °F 100% 29.92 in 5.0 mi WNW 9.2 mph - 0.08 in Snow Light Snow
12:53 AM 34.0 °F 28.0 °F 33.1 °F 96% 29.94 in 5.0 mi WNW 6.9 mph - 0.08 in Snow Light Snow
1:05 AM 35.6 °F 29.9 °F 33.8 °F 93% 29.91 in 7.0 mi WNW 6.9 mph - 0.00 in Rain Light Freezing Rain
1:53 AM 35.1 °F 27.9 °F 34.0 °F 96% 29.91 in 6.0 mi WNW 9.2 mph - 0.02 in Rain Light Freezing Rain
2:38 AM 35.6 °F 28.0 °F 33.8 °F 93% 29.89 in 10.0 mi WNW 10.4 mph - 0.01 in   Overcast
2:53 AM 36.0 °F 29.0 °F 34.0 °F 93% 29.90 in 10.0 mi WNW 9.2 mph - 0.01 in   Overcast
3:53 AM 35.1 °F 27.4 °F 34.0 °F 96% 29.88 in 6.0 mi WNW 10.4 mph - 0.00 in Rain Light Rain
4:53 AM 35.1 °F 27.4 °F 34.0 °F 96% 29.88 in 6.0 mi WNW 10.4 mph - 0.04 in Rain Light Rain
5:53 AM 34.0 °F 28.0 °F 33.1 °F 96% 29.88 in 5.0 mi WNW 6.9 mph - 0.06 in Rain Light Rain
6:36 AM 33.8 °F 29.6 °F 33.8 °F 100% 29.86 in 5.0 mi NNW 4.6 mph - 0.03 in Snow Light Snow
6:53 AM 33.1 °F 28.7 °F 33.1 °F 100% 29.88 in 4.0 mi NNW 4.6 mph - 0.04 in Snow Light Snow
7:53 AM 35.1 °F 30.1 °F 34.0 °F 96% 29.88 in 10.0 mi NNW 5.8 mph - 0.00 in   Overcast
8:53 AM 36.0 °F 31.1 °F 34.0 °F 93% 29.89 in 6.0 mi WNW 5.8 mph - N/A   Overcast
9:53 AM 37.0 °F 32.4 °F 35.1 °F 93% 29.89 in 10.0 mi North 5.8 mph - 0.01 in Rain Light Rain
10:53 AM 37.9 °F 33.5 °F 36.0 °F 93% 29.91 in 9.0 mi NNW 5.8 mph - 0.01 in   Overcast
11:53 AM 41.0 °F 37.1 °F 36.0 °F 82% 29.91 in 10.0 mi North 5.8 mph - 0.00 in Rain Light Rain
12:53 PM 42.1 °F 38.4 °F 36.0 °F 79% 29.92 in 10.0 mi NNE 5.8 mph - 0.00 in   Overcast
1:53 PM 43.0 °F 39.5 °F 36.0 °F 76% 29.93 in 10.0 mi North 5.8 mph - N/A   Overcast
2:53 PM 45.0 °F 41.8 °F 37.0 °F 74% 29.94 in 10.0 mi NE 5.8 mph - 0.00 in   Overcast
3:53 PM 44.1 °F 40.8 °F 37.0 °F 76% 29.96 in 10.0 mi North 5.8 mph - 0.00 in   Overcast
4:53 PM 46.0 °F 43.1 °F 37.0 °F 71% 29.95 in 10.0 mi North 5.8 mph - N/A   Overcast
5:53 PM 43.0 °F 39.5 °F 39.0 °F 86% 29.98 in 6.0 mi NE 5.8 mph - 0.01 in Rain Light Rain
6:53 PM 44.1 °F 40.8 °F 39.0 °F 82% 29.99 in 10.0 mi North 5.8 mph - 0.02 in Rain Light Rain
7:53 PM 42.1 °F 38.4 °F 37.9 °F 85% 30.00 in 10.0 mi North 5.8 mph - 0.00 in Rain Light Rain
8:53 PM 41.0 °F 39.0 °F 39.0 °F 93% 30.02 in 10.0 mi NNW 3.5 mph - 0.00 in   Overcast
9:53 PM 39.9 °F - 37.9 °F 93% 30.03 in 10.0 mi Calm Calm - N/A   Clear
10:53 PM 39.0 °F 36.8 °F 37.0 °F 93% 30.05 in 10.0 mi NNW 3.5 mph - N/A   Clear
11:53 PM 39.0 °F 35.7 °F 36.0 °F 89% 30.04 in 10.0 mi North 4.6 mph - N/A   Clear